• En España
  • Lista de países
  • Para 7 días
  • Temperatura del agua
  • Mapa Satelital
  • El tiempo en el mapa
  • Informadores
  • user-avatar
    Iniciar sesión

    Tiempo cada hora Satif

    Hoy, 21 Julio, Sábado

    Tiempo Temperatura Precipitaciones Viento Presión Humedad
    00:00 +31°C° 0 mm 3 mps 673 mmHg 25%
    01:00 +30°C° 0 mm 3 mps 673 mmHg 30%
    02:00 +29°C° 0 mm 3 mps 673 mmHg 35%
    03:00 +28°C° 0 mm 3 mps 673 mmHg 40%
    04:00 +28°C° 0 mm 3 mps 673 mmHg 42%
    05:00 +28°C° 0 mm 3 mps 673 mmHg 43%
    06:00 +28°C° 0 mm 3 mps 674 mmHg 44%
    07:00 +30°C° 0 mm 3 mps 674 mmHg 38%
    08:00 +33°C° 0 mm 4 mps 675 mmHg 33%
    09:00 +34°C° 0 mm 4 mps 675 mmHg 27%
    10:00 +35°C° 0 mm 5 mps 675 mmHg 24%
    11:00 +36°C° 0 mm 5 mps 675 mmHg 22%
    12:00 +38°C° 0 mm 6 mps 676 mmHg 21%
    13:00 +38°C° 0 mm 6 mps 675 mmHg 20%
    14:00 +38°C° 0 mm 6 mps 675 mmHg 20%
    15:00 +37°C° 0 mm 5 mps 675 mmHg 19%
    16:00 +36°C° 0 mm 5 mps 675 mmHg 21%
    17:00 +35°C° 0 mm 4 mps 674 mmHg 23%
    18:00 +34°C° 0 mm 3 mps 674 mmHg 26%
    19:00 +33°C° 0 mm 3 mps 674 mmHg 29%
    20:00 +30°C° 0 mm 2 mps 674 mmHg 33%
    21:00 +29°C° 0 mm 2 mps 674 mmHg 37%
    22:00 +28°C° 0 mm 2 mps 674 mmHg 37%
    23:00 +28°C° 0 mm 2 mps 674 mmHg 38%

    Mañana, 22 Julio, Domingo

    Tiempo Temperatura Precipitaciones Viento Presión Humedad
    00:00 +27°C° 0 mm 2 mps 674 mmHg 38%
    01:00 +27°C° 0 mm 2 mps 673 mmHg 38%
    02:00 +27°C° 0 mm 2 mps 673 mmHg 38%
    03:00 +26°C° 0 mm 2 mps 672 mmHg 38%
    04:00 +26°C° 0 mm 2 mps 672 mmHg 38%
    05:00 +26°C° 0 mm 2 mps 673 mmHg 38%
    06:00 +26°C° 0 mm 2 mps 673 mmHg 38%
    07:00 +28°C° 0 mm 2 mps 673 mmHg 34%
    08:00 +30°C° 0 mm 2 mps 674 mmHg 30%
    09:00 +31°C° 0 mm 2 mps 674 mmHg 27%
    10:00 +34°C° 0 mm 2 mps 674 mmHg 24%
    11:00 +35°C° 0 mm 2 mps 675 mmHg 21%
    12:00 +36°C° 0 mm 2 mps 675 mmHg 18%
    13:00 +36°C° 0 mm 2 mps 675 mmHg 18%
    14:00 +37°C° 0 mm 3 mps 674 mmHg 19%
    15:00 +37°C° 0 mm 4 mps 674 mmHg 19%
    16:00 +35°C° 0 mm 4 mps 674 mmHg 22%
    17:00 +34°C° 0 mm 4 mps 673 mmHg 25%
    18:00 +33°C° 0 mm 5 mps 673 mmHg 28%
    19:00 +32°C° 0 mm 4 mps 673 mmHg 29%
    20:00 +30°C° 0 mm 4 mps 674 mmHg 31%
    21:00 +29°C° 0 mm 3 mps 674 mmHg 32%
    22:00 +29°C° 0 mm 3 mps 674 mmHg 33%
    23:00 +29°C° 0 mm 3 mps 674 mmHg 33%

    Pasado mañana, 23 Julio, Lunes

    Tiempo Temperatura Precipitaciones Viento Presión Humedad
    00:00 +28°C° 0 mm 3 mps 674 mmHg 34%
    01:00 +28°C° 0 mm 3 mps 674 mmHg 36%
    02:00 +27°C° 0 mm 2 mps 673 mmHg 39%
    03:00 +26°C° 0 mm 2 mps 673 mmHg 41%
    04:00 +26°C° 0 mm 2 mps 673 mmHg 43%
    05:00 +26°C° 0 mm 2 mps 673 mmHg 45%
    06:00 +26°C° 0 mm 2 mps 674 mmHg 47%
    07:00 +27°C° 0 mm 2 mps 674 mmHg 44%
    08:00 +28°C° 0 mm 2 mps 674 mmHg 40%
    09:00 +29°C° 0 mm 3 mps 675 mmHg 37%
    10:00 +30°C° 0 mm 3 mps 675 mmHg 33%
    11:00 +31°C° 0 mm 3 mps 675 mmHg 30%
    12:00 +33°C° 0 mm 3 mps 675 mmHg 26%
    13:00 +33°C° 0 mm 3 mps 675 mmHg 25%
    14:00 +34°C° 0 mm 4 mps 675 mmHg 24%
    15:00 +34°C° 0 mm 4 mps 675 mmHg 24%
    16:00 +33°C° 0 mm 4 mps 675 mmHg 26%
    17:00 +32°C° 0 mm 4 mps 675 mmHg 29%
    18:00 +30°C° 0 mm 4 mps 674 mmHg 31%
    19:00 +29°C° 0 mm 4 mps 674 mmHg 35%
    20:00 +27°C° 0 mm 3 mps 675 mmHg 39%
    21:00 +26°C° 0 mm 2 mps 675 mmHg 43%
    22:00 +26°C° 0 mm 2 mps 674 mmHg 43%
    23:00 +25°C° 0 mm 2 mps 674 mmHg 44%

    24 Julio, Martes

    Tiempo Temperatura Precipitaciones Viento Presión Humedad
    00:00 +25°C° 0 mm 1 mps 674 mmHg 45%
    01:00 +24°C° 0 mm 1 mps 673 mmHg 45%
    02:00 +24°C° 0 mm 1 mps 673 mmHg 45%
    03:00 +23°C° 0 mm 1 mps 673 mmHg 45%
    04:00 +24°C° 0 mm 1 mps 673 mmHg 43%
    05:00 +24°C° 0 mm 1 mps 673 mmHg 40%
    06:00 +25°C° 0 mm 1 mps 673 mmHg 37%
    07:00 +27°C° 0 mm 1 mps 674 mmHg 33%
    08:00 +28°C° 0 mm 2 mps 674 mmHg 28%
    09:00 +30°C° 0 mm 2 mps 675 mmHg 24%
    10:00 +31°C° 0 mm 2 mps 675 mmHg 21%
    11:00 +34°C° 0 mm 3 mps 675 mmHg 18%
    12:00 +35°C° 0 mm 3 mps 675 mmHg 16%
    13:00 +35°C° 0 mm 3 mps 675 mmHg 15%
    14:00 +36°C° 0 mm 4 mps 675 mmHg 15%
    15:00 +36°C° 0 mm 4 mps 675 mmHg 14%
    16:00 +35°C° 0 mm 4 mps 674 mmHg 16%
    17:00 +34°C° 0 mm 4 mps 674 mmHg 18%
    18:00 +33°C° 0 mm 4 mps 674 mmHg 19%
    19:00 +31°C° 0 mm 3 mps 674 mmHg 22%
    20:00 +29°C° 0 mm 3 mps 674 mmHg 25%
    21:00 +28°C° 0 mm 2 mps 674 mmHg 28%
    22:00 +27°C° 0 mm 2 mps 674 mmHg 29%
    23:00 +27°C° 0 mm 2 mps 674 mmHg 29%

    25 Julio, Miércoles

    Tiempo Temperatura Precipitaciones Viento Presión Humedad
    00:00 +26°C° 0 mm 1 mps 674 mmHg 30%
    01:00 +26°C° 0 mm 1 mps 673 mmHg 31%
    02:00 +25°C° 0 mm 1 mps 673 mmHg 32%
    03:00 +25°C° 0 mm 1 mps 673 mmHg 32%
    04:00 +25°C° 0 mm 1 mps 673 mmHg 31%
    05:00 +26°C° 0 mm 1 mps 673 mmHg 30%
    06:00 +27°C° 0 mm 1 mps 674 mmHg 28%
    07:00 +28°C° 0 mm 1 mps 674 mmHg 25%
    08:00 +30°C° 0 mm 1 mps 675 mmHg 22%
    09:00 +31°C° 0 mm 1 mps 675 mmHg 19%
    10:00 +32°C° 0 mm 2 mps 675 mmHg 18%
    11:00 +34°C° 0 mm 3 mps 675 mmHg 17%
    12:00 +35°C° 0 mm 3 mps 675 mmHg 16%
    13:00 +36°C° 0 mm 3 mps 675 mmHg 16%
    14:00 +36°C° 0 mm 4 mps 675 mmHg 16%
    15:00 +36°C° 0 mm 4 mps 675 mmHg 16%
    16:00 +35°C° 0 mm 3 mps 674 mmHg 18%
    17:00 +35°C° 0 mm 3 mps 674 mmHg 20%
    18:00 +34°C° 0 mm 2 mps 674 mmHg 22%
    19:00 +32°C° 0 mm 2 mps 674 mmHg 25%
    20:00 +31°C° 0 mm 1 mps 674 mmHg 27%
    21:00 +30°C° 0 mm 1 mps 674 mmHg 30%
    22:00 +29°C° 0 mm 1 mps 674 mmHg 31%
    23:00 +28°C° 0 mm 1 mps 673 mmHg 33%

    26 Julio, Jueves

    Tiempo Temperatura Precipitaciones Viento Presión Humedad
    00:00 +28°C° 0 mm 1 mps 673 mmHg 34%
    01:00 +27°C° 0 mm 1 mps 673 mmHg 35%
    02:00 +26°C° 0 mm 1 mps 672 mmHg 36%
    03:00 +24°C° 0 mm 0 mps 672 mmHg 38%
    04:00 +24°C° 0 mm 0 mps 672 mmHg 36%
    05:00 +25°C° 0 mm 0 mps 673 mmHg 35%
    06:00 +27°C° 0 mm 1 mps 673 mmHg 33%
    07:00 +29°C° 0 mm 1 mps 673 mmHg 30%
    08:00 +30°C° 0 mm 2 mps 674 mmHg 27%
    09:00 +31°C° 0 mm 2 mps 674 mmHg 23%
    10:00 +33°C° 0 mm 3 mps 675 mmHg 22%
    11:00 +34°C° 0 mm 3 mps 675 mmHg 21%
    12:00 +35°C° 0 mm 3 mps 675 mmHg 19%
    13:00 +35°C° 0 mm 4 mps 674 mmHg 19%
    14:00 +35°C° 0 mm 4 mps 674 mmHg 19%
    15:00 +35°C° 0 mm 4 mps 674 mmHg 19%
    16:00 +34°C° 0 mm 4 mps 674 mmHg 21%
    17:00 +33°C° 0 mm 4 mps 674 mmHg 23%
    18:00 +32°C° 0 mm 4 mps 674 mmHg 25%
    19:00 +30°C° 0 mm 3 mps 674 mmHg 28%
    20:00 +29°C° 0 mm 3 mps 674 mmHg 30%
    21:00 +28°C° 0 mm 2 mps 674 mmHg 33%
    22:00 +27°C° 0 mm 2 mps 674 mmHg 34%
    23:00 +27°C° 0 mm 2 mps 673 mmHg 35%
    Mostrar más